Murray, KY

1:07 PM CST on January 23, 2018 (GMT -0600)
Kyle-Oakley

Weather History for KCEY - December, 2012

Change the Weather History Date:

Friday, December 14, 2012

  Actual Average (KPAH) Record (KPAH)
Temperature  
Mean Temperature 42 °F -  
Max Temperature 57 °F 48 °F 68 °F (1971)
Min Temperature 28 °F 29 °F 4 °F (2010)
Degree Days  
Heating Degree Days 22    
Moisture  
Dew Point 28 °F    
Average Humidity 53    
Maximum Humidity 80    
Minimum Humidity 33    
Precipitation  
Precipitation 0.00 in - - ()
Sea Level Pressure  
Sea Level Pressure 30.23 in    
Wind  
Wind Speed 6 mph (South)    
Max Wind Speed 10 mph    
Max Gust Speed -    
Visibility 10 miles    
Events      
Averages and records for this station are not official NWS values.
T = Trace of Precipitation, MM = Missing Value Source: NWS Daily Summary

Daily Weather History Graph

Daily Weather History Graph

Search for Another Location

Airport or City:

Trip Planner

Search our weather history database for the weather conditions in past years. The results will help you decide how hot, cold, wet, or windy it might be!

Date:

Astronomy

Dec. 14, 2012 Rise Set
Actual Time 6:58 AM CST 4:38 PM CST
Civil Twilight 6:29 AM CST 5:07 PM CST
Nautical Twilight 5:56 AM CST 5:39 PM CST
Astronomical Twilight 5:25 AM CST 6:11 PM CST
Moon 8:04 AM CST (12/14) 6:29 PM CST (12/14)
Length of Visible Light 10h 38m
Length of Day
9h 40m
Waxing Crescent, 3% of the Moon is Illuminated
Dec 14
Waxing Crescent
Dec 19
First Quarter
Dec 28
Full
Jan 4
Last Quarter
Jan 11
New

Hourly Weather History & Observations

Time (CST) Temp. Windchill Dew Point Humidity Pressure Visibility Wind Dir Wind Speed Gust Speed Precip Events Conditions
12:15 AM 39.2 °F 34.2 °F 17.6 °F 42% 30.30 in 10.0 mi South 6.9 mph - N/A   Clear
12:35 AM 41.0 °F 35.8 °F 17.6 °F 39% 30.29 in 10.0 mi South 8.1 mph - N/A   Clear
12:55 AM 39.2 °F 35.0 °F 19.4 °F 45% 30.29 in 10.0 mi South 5.8 mph - N/A   Clear
1:15 AM 39.2 °F 35.0 °F 17.6 °F 42% 30.29 in 10.0 mi South 5.8 mph - N/A   Clear
1:35 AM 39.2 °F 34.2 °F 17.6 °F 42% 30.29 in 10.0 mi South 6.9 mph - N/A   Clear
1:55 AM 39.2 °F 33.6 °F 17.6 °F 42% 30.28 in 10.0 mi SSE 8.1 mph - N/A   Clear
2:15 AM 37.4 °F 32.1 °F 17.6 °F 45% 30.27 in 10.0 mi South 6.9 mph - N/A   Clear
2:35 AM 37.4 °F 32.1 °F 17.6 °F 45% 30.27 in 10.0 mi South 6.9 mph - N/A   Clear
2:55 AM 39.2 °F 35.0 °F 17.6 °F 42% 30.27 in 10.0 mi South 5.8 mph - N/A   Clear
3:15 AM 35.6 °F 30.7 °F 19.4 °F 52% 30.27 in 10.0 mi South 5.8 mph - N/A   Clear
3:35 AM 35.6 °F 30.7 °F 19.4 °F 52% 30.28 in 10.0 mi South 5.8 mph - N/A   Clear
3:55 AM 35.6 °F 31.7 °F 19.4 °F 52% 30.28 in 10.0 mi South 4.6 mph - N/A   Clear
4:15 AM 32.0 °F 26.4 °F 19.4 °F 60% 30.28 in 10.0 mi South 5.8 mph - N/A   Clear
4:35 AM 32.0 °F 27.5 °F 19.4 °F 60% 30.28 in 10.0 mi South 4.6 mph - N/A   Clear
4:55 AM 30.2 °F 26.7 °F 21.2 °F 69% 30.29 in 10.0 mi South 3.5 mph - N/A   Clear
5:15 AM 32.0 °F 28.7 °F 21.2 °F 64% 30.29 in 10.0 mi South 3.5 mph - N/A   Clear
5:35 AM 28.4 °F 24.6 °F 23.0 °F 80% 30.30 in 10.0 mi South 3.5 mph - N/A   Clear
5:55 AM 32.0 °F 26.4 °F 21.2 °F 64% 30.30 in 10.0 mi SSE 5.8 mph - N/A   Clear
6:15 AM 32.0 °F 26.4 °F 21.2 °F 64% 30.30 in 10.0 mi SSE 5.8 mph - N/A   Clear
6:35 AM 32.0 °F 27.5 °F 21.2 °F 64% 30.30 in 10.0 mi South 4.6 mph - N/A   Clear
6:55 AM 32.0 °F 26.4 °F 21.2 °F 64% 30.30 in 10.0 mi South 5.8 mph - N/A   Clear
7:15 AM 32.0 °F 26.4 °F 21.2 °F 64% 30.30 in 10.0 mi SSE 5.8 mph - N/A   Clear
7:35 AM 32.0 °F 27.5 °F 23.0 °F 69% 30.29 in 10.0 mi SSE 4.6 mph - N/A   Clear
7:55 AM 35.6 °F 29.9 °F 23.0 °F 60% 30.30 in 10.0 mi SSE 6.9 mph - N/A   Clear
8:15 AM 37.4 °F 32.1 °F 24.8 °F 60% 30.30 in 10.0 mi South 6.9 mph - N/A   Clear
8:35 AM 39.2 °F 34.2 °F 24.8 °F 56% 30.30 in 10.0 mi South 6.9 mph - N/A   Clear
8:55 AM 41.0 °F 36.4 °F 26.6 °F 57% 30.32 in 10.0 mi SSW 6.9 mph - N/A   Clear
9:15 AM 41.0 °F 38.0 °F 28.4 °F 61% 30.32 in 10.0 mi South 4.6 mph - N/A   Clear
9:35 AM 44.6 °F 41.4 °F 28.4 °F 53% 30.32 in 10.0 mi SSW 5.8 mph - N/A   Clear
9:55 AM 46.4 °F 45.2 °F 30.2 °F 53% 30.31 in 10.0 mi SSW 3.5 mph - N/A   Clear
10:15 AM 48.2 °F - 26.6 °F 43% 30.32 in 10.0 mi SSW 8.1 mph - N/A   Clear
10:35 AM 50.0 °F - 28.4 °F 43% 30.32 in 10.0 mi South 5.8 mph - N/A   Clear
10:55 AM 50.0 °F - 28.4 °F 43% 30.31 in 10.0 mi SW 8.1 mph - N/A   Clear
11:15 AM 53.6 °F - 28.4 °F 38% 30.29 in 10.0 mi SW 10.4 mph - N/A   Clear
11:35 AM 53.6 °F - 32.0 °F 44% 30.26 in 10.0 mi SSW 8.1 mph - N/A   Clear
12:15 PM 55.4 °F - 28.4 °F 36% 30.25 in 10.0 mi SSW 6.9 mph - N/A   Clear
12:35 PM 55.4 °F - 28.4 °F 36% 30.24 in 10.0 mi SSW 5.8 mph - N/A   Clear
12:55 PM 57.2 °F - 28.4 °F 33% 30.23 in 10.0 mi South 5.8 mph - N/A   Clear
1:15 PM 55.4 °F - 30.2 °F 38% 30.23 in 10.0 mi SW 5.8 mph - N/A   Clear
1:35 PM 55.4 °F - 28.4 °F 36% 30.22 in 10.0 mi SSW 8.1 mph - N/A   Clear
1:55 PM 55.4 °F - 30.2 °F 38% 30.21 in 10.0 mi SW 4.6 mph - N/A   Clear
2:15 PM 55.4 °F - 28.4 °F 36% 30.21 in 10.0 mi SW 6.9 mph - N/A   Clear
2:35 PM 53.6 °F - 30.2 °F 41% 30.19 in 10.0 mi SSW 4.6 mph - N/A   Clear
2:55 PM 53.6 °F - 32.0 °F 44% 30.20 in 10.0 mi SSW 5.8 mph - N/A   Clear
3:15 PM 53.6 °F - 32.0 °F 44% 30.19 in 10.0 mi South 4.6 mph - N/A   Clear
3:35 PM 53.6 °F - 32.0 °F 44% 30.19 in 10.0 mi South 3.5 mph - N/A   Clear
3:55 PM 51.8 °F - 32.0 °F 47% 30.19 in 10.0 mi South 3.5 mph - N/A   Clear
4:15 PM 50.0 °F - 32.0 °F 50% 30.18 in 10.0 mi Calm Calm - N/A   Clear
4:55 PM 46.4 °F - 33.8 °F 62% 30.17 in 10.0 mi Calm Calm - N/A   Clear
5:15 PM 48.2 °F - 32.0 °F 54% 30.17 in 10.0 mi SE 3.5 mph - N/A   Clear
5:35 PM 48.2 °F - 32.0 °F 54% 30.16 in 10.0 mi ESE 3.5 mph - N/A   Clear
5:55 PM 44.6 °F 42.2 °F 33.8 °F 66% 30.17 in 10.0 mi SE 4.6 mph - N/A   Clear
6:15 PM 46.4 °F 44.3 °F 32.0 °F 57% 30.16 in 10.0 mi SE 4.6 mph - N/A   Clear
6:35 PM 46.4 °F 44.3 °F 32.0 °F 57% 30.15 in 10.0 mi SE 4.6 mph - N/A   Clear
6:55 PM 46.4 °F 43.5 °F 32.0 °F 57% 30.14 in 10.0 mi SE 5.8 mph - N/A   Clear
7:15 PM 46.4 °F 43.5 °F 33.8 °F 62% 30.12 in 10.0 mi SE 5.8 mph - N/A   Clear
7:35 PM 46.4 °F 42.9 °F 33.8 °F 62% 30.12 in 10.0 mi SE 6.9 mph - N/A   Partly Cloudy
7:55 PM 46.4 °F 44.3 °F 32.0 °F 57% 30.13 in 10.0 mi SE 4.6 mph - N/A   Clear
8:15 PM 48.2 °F - 32.0 °F 54% 30.12 in 10.0 mi SE 5.8 mph - N/A   Clear
8:35 PM 46.4 °F 43.5 °F 33.8 °F 62% 30.13 in 10.0 mi South 5.8 mph - N/A   Clear
8:55 PM 48.2 °F - 33.8 °F 58% 30.13 in 10.0 mi South 4.6 mph - N/A   Partly Cloudy
9:15 PM 46.4 °F 45.2 °F 33.8 °F 62% 30.12 in 10.0 mi SSE 3.5 mph - N/A   Partly Cloudy
9:35 PM 46.4 °F 44.3 °F 35.6 °F 66% 30.12 in 10.0 mi SSE 4.6 mph - N/A   Partly Cloudy
9:55 PM 46.4 °F 43.5 °F 35.6 °F 66% 30.11 in 10.0 mi SE 5.8 mph - N/A   Scattered Clouds
10:15 PM 46.4 °F 44.3 °F 35.6 °F 66% 30.11 in 10.0 mi SSE 4.6 mph - N/A   Partly Cloudy
10:35 PM 48.2 °F - 35.6 °F 62% 30.12 in 10.0 mi South 8.1 mph - N/A   Scattered Clouds
10:55 PM 48.2 °F - 35.6 °F 62% 30.12 in 10.0 mi South 5.8 mph - N/A   Mostly Cloudy
11:15 PM 48.2 °F - 37.4 °F 66% 30.11 in 10.0 mi South 6.9 mph - N/A   Scattered Clouds
11:35 PM 48.2 °F - 37.4 °F 66% 30.11 in 10.0 mi South 6.9 mph - N/A   Partly Cloudy
11:55 PM 50.0 °F - 37.4 °F 62% 30.10 in 10.0 mi South 9.2 mph - N/A   Mostly Cloudy